Munising, MI

8:03 AM EST on February 09, 2016 (GMT -0500)
Munising

Weather History for KP53 - November, 2013

Change the Weather History Date:

Tuesday, November 12, 2013

  Actual Average (KISQ) Record (KISQ)
Temperature  
Mean Temperature 26 °F -  
Max Temperature 30 °F 39 °F 54 °F (1964)
Min Temperature 21 °F 24 °F 7 °F (1986)
Degree Days  
Heating Degree Days 40    
Moisture  
Dew Point 14 °F    
Average Humidity 59    
Maximum Humidity 69    
Minimum Humidity 47    
Precipitation  
Precipitation 0.01 in - - ()
Sea Level Pressure  
Sea Level Pressure 30.51 in    
Wind  
Wind Speed 16 mph (WNW)    
Max Wind Speed 23 mph    
Max Gust Speed 36 mph    
Averages and records for this station are not official NWS values.
T = Trace of Precipitation, MM = Missing Value Source: NWS Daily Summary

Daily Weather History Graph

Daily Weather History Graph

Search for Another Location

Airport or City:

Trip Planner

Search our weather history database for the weather conditions in past years. The results will help you decide how hot, cold, wet, or windy it might be!

Date:

Astronomy

Nov. 12, 2013 Rise Set
Actual Time 7:44 AM EST 5:16 PM EST
Civil Twilight 7:11 AM EST 5:49 PM EST
Nautical Twilight 6:35 AM EST 6:25 PM EST
Astronomical Twilight 6:00 AM EST 7:00 PM EST
Moon 2:46 PM EST (11/12) 2:16 AM EST (11/12)
Length of Visible Light 10h 37m
Length of Day
9h 32m
Waxing Gibbous, 76% of the Moon is Illuminated
Nov 12
Waxing Gibbous
Nov 17
Full
Nov 25
Last Quarter
Dec 2
New
Dec 9
First Quarter

Hourly Weather History & Observations

Time (EST) Temp. Windchill Dew Point Humidity Pressure Visibility Wind Dir Wind Speed Gust Speed Precip Events Conditions
12:56 AM 30.0 °F 16.6 °F 21.0 °F 69% 30.48 in - North 23.0 mph 31.1 mph N/A   Unknown
1:56 AM 30.0 °F 16.9 °F 19.9 °F 66% 30.49 in - North 21.9 mph 27.6 mph N/A   Unknown
2:56 AM 28.9 °F 16.1 °F 18.0 °F 64% 30.51 in - NNW 19.6 mph 28.8 mph N/A   Unknown
3:56 AM 28.9 °F 16.5 °F 18.0 °F 64% 30.52 in - NNW 18.4 mph 28.8 mph N/A   Unknown
4:56 AM 28.9 °F 15.1 °F 19.0 °F 67% 30.53 in - North 23.0 mph 34.5 mph N/A   Unknown
5:56 AM 28.9 °F 16.1 °F 17.1 °F 61% 30.54 in - North 19.6 mph 35.7 mph N/A   Unknown
6:56 AM 28.0 °F 15.7 °F 18.0 °F 66% 30.54 in - NNW 17.3 mph 28.8 mph N/A   Unknown
7:56 AM 27.0 °F 14.3 °F 16.0 °F 63% 30.56 in - NNW 17.3 mph 21.9 mph 0.01 in   Unknown
8:56 AM 28.0 °F 15.3 °F 15.1 °F 58% 30.57 in - NNW 18.4 mph 29.9 mph N/A   Unknown
9:56 AM 28.0 °F 14.9 °F 15.1 °F 58% 30.57 in - NNW 19.6 mph 27.6 mph N/A   Unknown
10:56 AM 28.0 °F 17.5 °F 18.0 °F 66% 30.58 in - NW 12.7 mph 21.9 mph N/A   Unknown
11:56 AM 28.9 °F 16.9 °F 12.9 °F 51% 30.58 in - NNW 17.3 mph - N/A   Unknown
12:56 PM 28.0 °F 19.3 °F 17.1 °F 63% 30.57 in - West 9.2 mph 24.2 mph N/A   Unknown
1:56 PM 28.9 °F 21.9 °F 17.1 °F 61% 30.53 in - WNW 6.9 mph - N/A   Unknown
2:56 PM 30.9 °F 20.2 °F 15.1 °F 52% 30.51 in - NW 15.0 mph 19.6 mph N/A   Unknown
3:56 PM 30.0 °F 22.4 °F 12.0 °F 47% 30.50 in - WNW 8.1 mph - N/A   Unknown
4:56 PM 28.9 °F 21.9 °F 10.9 °F 47% 30.50 in - WSW 6.9 mph - N/A   Unknown
5:56 PM 27.0 °F 23.0 °F 10.9 °F 51% 30.49 in - Variable 3.5 mph - N/A   Unknown
6:56 PM 25.0 °F 20.7 °F 10.9 °F 55% 30.48 in - SSW 3.5 mph - N/A   Unknown
7:56 PM 21.0 °F 12.4 °F 12.0 °F 68% 30.48 in - South 6.9 mph - N/A   Unknown
8:56 PM 21.9 °F 13.4 °F 10.0 °F 60% 30.45 in - SSW 6.9 mph - N/A   Unknown
9:56 PM 23.0 °F 13.9 °F 9.0 °F 55% 30.43 in - SW 8.1 mph - N/A   Unknown
10:56 PM 23.0 °F 13.9 °F 7.0 °F 50% 30.42 in - SW 8.1 mph - N/A   Unknown
11:56 PM 23.0 °F 14.7 °F 7.0 °F 50% 30.41 in - SSW 6.9 mph - N/A   Unknown